Dewpoint
71 72 72 74 75 74 74 76 77 77 76 76 77 77 77 76 76 76 76 76 76 76 76 76 76 76 76 76 75 75 75 75 76 76 76 76 76 76 75 75 75 74 74 74 74 75 74 74 74 74 74 74 74 74 74 74 74 74 75 75 75 75 75 75 75 75 74 74 75 74 75 75 75 75 75 75 74 74 75 75 75 74 74 74 75
72 72 72 74 75 75 75 76 76 76 76 76 76 77 76 77 76 76 76 76 76 76 76 76 76 76 76 76 76 75 76 76 76 75 76 76 76 75 75 75 75 75 75 75 75 75 74 74 74 74 74 74 74 74 74 75 75 75 74 74 75 75 75 74 74 74 73 73 75 74 75 75 75 75 74 74 74 75 75 74 75 74 73 74 74
72 72 74 74 75 76 76 76 76 76 76 76 76 76 76 77 77 76 76 77 77 76 76 76 76 76 76 76 76 76 76 76 76 76 76 76 76 75 75 75 75 75 74 74 75 75 75 75 74 74 74 74 74 73 74 75 74 74 74 75 75 75 74 74 75 74 74 73 74 75 75 75 75 75 75 74 74 73 74 75 74 75 73 74 74
72 73 74 75 76 76 76 76 76 76 76 76 76 76 76 76 76 76 76 76 76 76 76 76 76 76 76 76 76 76 76 76 76 76 75 74 76 76 76 75 75 75 75 74 74 74 74 74 74 74 74 74 74 74 75 74 74 74 74 74 74 74 74 74 74 74 74 74 75 75 75 74 74 75 74 75 74 74 74 74 74 75 74 74 74
72 73 74 74 75 76 77 76 76 76 76 76 76 76 76 77 76 77 76 76 77 77 76 76 76 76 76 76 76 76 76 76 75 75 75 75 75 75 75 75 75 74 75 75 74 75 74 74 74 74 74 75 74 74 74 74 74 74 74 74 74 74 74 74 74 74 74 75 75 75 74 74 74 74 74 74 74 74 75 74 74 74 74 74 74
73 73 74 74 75 76 77 76 76 76 76 76 76 76 77 77 76 76 77 76 76 76 76 76 76 76 76 76 75 75 76 75 75 75 75 75 75 75 75 75 74 74 75 75 74 74 74 75 74 75 75 74 74 74 74 74 74 74 74 74 73 74 74 74 74 75 76 76 75 74 74 74 74 74 74 74 74 74 74 74 74 74 74 74 74
73 74 74 75 75 76 77 77 76 76 76 76 76 77 77 76 76 76 76 76 76 76 76 76 76 75 75 75 75 75 75 76 76 76 75 75 75 75 75 75 75 74 74 75 75 74 74 75 75 75 74 74 74 74 74 74 73 74 74 74 74 74 74 74 75 75 75 74 73 73 73 73 74 74 73 74 74 73 74 74 73 73 74 74 75
73 74 75 75 75 76 77 77 76 76 76 76 76 77 77 77 76 76 76 76 76 76 76 75 75 75 75 75 76 75 75 76 75 75 74 75 75 75 75 74 75 75 74 74 74 75 74 74 74 74 75 75 74 74 74 74 74 73 74 74 74 74 74 74 75 75 75 73 73 73 73 73 73 74 74 74 74 74 74 73 74 74 74 74 74
73 74 75 75 75 77 77 76 76 76 76 76 77 77 76 76 76 76 77 76 76 76 75 75 75 75 75 75 75 75 76 75 75 75 75 75 75 75 75 75 75 74 74 75 74 75 74 75 75 74 73 73 74 74 74 74 74 74 74 74 74 74 74 75 75 75 74 74 74 73 74 74 74 73 73 74 74 74 73 73 74 74 74 74 74
74 75 75 74 75 77 76 76 76 76 76 76 77 76 76 76 76 76 76 76 76 76 75 75 75 75 74 75 76 76 75 75 75 75 75 75 75 74 75 75 75 74 75 75 74 75 75 74 74 74 73 74 73 73 74 74 74 73 73 73 73 74 75 75 75 75 73 74 75 75 74 74 74 73 72 73 73 74 73 74 74 74 74 74 74
74 75 75 75 76 76 76 76 76 76 76 76 76 77 76 76 76 76 76 76 76 76 75 75 75 75 75 75 75 75 75 75 75 75 75 75 74 74 75 75 75 74 74 75 75 74 75 74 74 73 74 74 74 74 74 74 74 74 74 74 74 75 75 75 75 74 74 74 74 74 74 74 73 74 73 73 74 74 73 73 73 74 74 74 74
74 75 74 75 76 76 76 76 76 76 76 76 77 77 76 76 76 76 76 76 75 75 75 75 75 75 75 75 75 76 76 75 75 75 75 75 75 75 75 75 75 75 75 75 75 75 75 75 74 74 75 74 74 74 74 74 74 74 73 73 74 75 75 75 74 74 74 75 75 73 72 73 74 73 74 73 73 73 73 73 73 73 74 73 73
74 74 75 75 75 76 76 76 76 76 76 76 76 76 77 76 76 76 75 75 75 75 75 75 75 75 74 74 75 76 75 75 75 75 75 76 75 75 75 75 75 74 75 74 74 74 74 74 74 74 75 75 74 74 74 74 74 74 74 73 74 75 75 75 74 74 74 74 74 74 74 74 73 73 73 73 73 73 73 73 74 73 73 73 74
74 74 74 74 75 76 76 76 76 76 76 76 76 77 76 76 76 76 75 75 75 75 75 75 75 75 74 74 74 75 74 75 75 75 75 75 75 75 75 75 75 75 75 75 74 74 74 74 74 74 74 75 74 75 74 74 74 74 74 73 74 74 75 75 75 74 75 75 75 74 74 74 73 74 73 73 73 73 73 73 73 74 73 73 74
74 74 74 75 76 76 76 76 76 76 76 76 76 76 76 76 76 75 75 75 75 75 75 75 75 75 74 74 74 74 75 74 74 74 74 75 75 75 75 75 76 75 75 75 74 74 74 74 73 73 73 74 74 74 74 74 74 74 74 74 74 75 75 74 74 74 75 75 75 74 73 73 73 73 73 73 73 73 73 74 74 74 73 73 73
74 74 75 75 75 75 75 76 76 76 76 76 76 76 76 76 76 75 75 75 75 75 76 75 75 76 75 75 74 74 74 74 74 74 74 75 75 74 75 75 75 75 74 73 73 74 74 74 74 72 72 73 74 74 74 74 74 74 74 74 74 75 75 75 74 74 74 74 75 75 74 73 73 73 74 73 73 73 74 74 74 73 73 73 73
74 75 75 75 75 75 75 75 76 76 76 76 76 76 76 76 75 75 75 75 75 75 76 75 76 76 75 75 75 75 75 75 75 75 75 75 75 75 75 75 74 74 74 74 74 74 74 74 74 73 73 73 73 74 74 74 74 74 74 74 74 75 75 75 73 73 74 75 75 74 74 73 73 73 73 73 73 73 73 73 73 73 73 73 73
75 75 75 75 75 75 75 75 75 75 75 76 76 76 76 76 75 75 75 75 75 76 76 75 75 75 75 75 75 75 75 75 75 75 75 73 75 75 74 75 75 75 75 75 75 75 75 75 74 74 74 73 72 73 73 74 74 74 73 74 74 75 75 75 73 74 75 75 75 75 75 74 73 73 73 73 73 73 73 73 73 73 73 73 73
74 75 75 75 75 75 75 75 76 75 75 75 75 75 76 75 75 75 75 75 75 75 76 76 75 75 75 75 75 75 75 75 75 75 74 74 75 75 75 74 75 75 75 74 75 75 75 75 74 74 73 73 73 73 73 73 73 73 73 73 73 75 75 74 74 75 75 75 75 74 75 75 74 74 74 74 72 73 73 74 73 73 73 72 72
74 74 75 75 75 75 75 75 75 75 75 75 75 75 75 75 75 75 75 75 75 75 75 75 75 75 75 75 75 76 75 75 75 75 75 75 75 75 75 74 74 75 75 75 75 75 75 75 75 74 74 73 74 74 74 74 74 73 73 73 73 75 73 73 74 74 74 75 75 74 75 74 73 73 73 73 74 73 74 73 73 73 73 73 73
74 74 75 75 75 75 75 75 75 75 75 75 75 75 75 75 75 75 75 75 75 75 75 75 76 75 75 75 78 76 76 76 77 76 76 77 75 74 74 74 73 74 74 75 75 75 75 75 74 74 74 73 73 74 74 73 73 73 72 74 75 72 73 73 73 74 75 75 75 75 75 75 73 73 73 73 74 74 74 74 73 73 73 73 72
73 74 75 75 75 75 75 75 74 75 75 75 75 75 76 76 75 75 76 76 75 75 76 76 76 76 76 76 77 77 75 76 77 77 78 76 76 75 73 73 73 73 73 73 74 74 73 73 74 73 74 74 76 75 76 75 73 72 73 75 73 73 73 73 73 74 74 75 75 75 75 73 73 73 73 73 73 73 74 74 74 73 73 73 73
72 73 74 74 75 75 75 74 74 75 75 75 75 76 76 75 75 75 76 76 76 77 76 76 74 75 75 76 76 75 76 76 77 77 77 76 76 74 73 72 73 73 73 73 73 73 73 74 73 74 74 76 74 74 74 74 75 75 76 74 73 73 73 73 73 74 74 75 74 74 74 73 73 73 73 73 73 73 73 73 73 73 73 73 73
71 72 73 74 75 74 74 74 74 75 75 75 75 75 75 75 75 75 75 75 76 76 75 74 74 74 74 75 75 76 75 75 76 74 77 77 76 76 74 73 73 73 75 76 77 73 75 75 73 77 77 75 73 73 74 73 73 75 74 74 73 73 73 73 74 74 74 75 74 74 74 73 72 72 73 73 73 73 73 73 73 73 73 73 72
71 73 73 74 74 74 74 74 74 75 75 75 75 75 75 75 75 76 75 75 75 75 74 74 74 74 74 75 75 76 75 75 75 76 76 76 75 75 75 75 75 76 78 75 75 75 75 74 75 75 75 75 73 73 73 73 74 75 75 74 73 73 73 73 73 73 74 75 74 74 73 73 73 72 73 73 73 73 73 73 73 73 73 73 73
72 72 73 74 74 74 74 74 74 75 75 75 75 76 75 75 75 75 75 75 75 74 74 74 74 74 74 76 76 75 75 74 75 75 75 75 75 74 74 74 75 75 76 74 74 74 74 74 74 75 74 75 74 73 74 74 72 73 75 75 73 73 73 73 73 73 74 74 75 74 73 73 73 72 72 72 73 73 73 73 73 72 73 73 73
71 72 73 73 74 74 74 74 74 74 75 75 75 76 75 75 75 75 75 75 75 74 74 74 74 74 75 77 75 74 74 74 74 74 75 75 75 74 74 75 74 75 76 74 74 74 74 74 74 75 75 74 74 74 75 74 72 72 74 75 74 73 73 72 73 73 74 74 75 75 74 73 73 72 72 73 72 73 73 73 72 73 72 72 73
71 71 72 73 74 73 74 74 74 74 74 75 75 75 75 75 75 76 76 76 75 74 74 74 74 74 75 76 76 74 74 74 74 74 74 75 75 74 74 74 74 75 76 75 74 74 74 74 74 74 74 74 73 73 73 73 73 73 72 74 74 73 73 72 73 73 73 74 75 75 74 72 73 73 73 73 73 73 73 73 72 72 72 72 72
70 71 72 73 73 74 74 73 73 74 74 75 75 75 75 75 76 76 75 76 75 75 74 75 74 75 75 76 77 74 74 74 74 74 74 75 75 75 74 74 75 75 75 74 74 74 74 74 73 73 74 74 74 73 74 73 73 73 72 73 74 74 72 72 73 73 73 74 74 75 74 73 73 72 72 73 73 73 73 73 72 72 73 73 72
70 71 72 72 73 73 74 73 73 73 74 74 74 75 75 75 75 76 76 76 75 75 74 74 74 75 75 75 76 74 74 74 74 75 74 74 74 75 75 74 75 74 75 73 74 74 74 73 73 73 74 74 73 74 74 72 70 72 72 72 72 73 73 72 73 73 73 74 74 75 75 74 72 73 72 72 73 72 73 73 73 72 72 73 72
70 70 71 72 73 73 73 73 73 74 74 74 74 75 75 75 75 75 75 75 75 75 74 74 74 75 75 75 75 75 74 73 74 74 74 74 74 74 74 74 74 74 74 73 74 74 73 73 73 74 74 74 74 74 74 74 72 72 73 71 71 73 72 73 72 73 73 74 74 76 76 74 74 74 73 72 73 73 73 73 73 72 72 72 72
69 70 71 72 73 73 73 73 73 73 73 73 74 74 74 74 74 74 75 75 75 75 74 74 75 75 75 75 75 74 76 73 74 74 75 74 74 74 74 74 74 74 75 74 74 75 74 73 74 75 75 74 73 72 74 73 73 72 71 70 71 72 72 72 72 72 73 74 75 75 76 75 73 73 72 73 73 73 73 73 73 73 72 72 72
69 70 71 72 72 72 73 73 73 73 73 73 73 73 74 74 74 74 74 74 74 74 74 73 74 75 76 75 75 74 76 74 73 75 76 74 74 74 74 74 74 74 75 74 74 75 75 74 73 76 74 73 72 72 74 73 72 72 71 69 71 71 72 72 73 73 73 73 74 75 75 76 75 73 73 74 73 73 73 73 74 73 73 72 72
69 70 70 71 72 72 72 72 72 72 72 72 73 73 73 73 73 73 74 74 74 74 73 73 74 75 76 75 75 74 75 74 73 75 75 74 74 74 74 74 75 75 75 75 74 74 74 73 73 74 75 74 72 72 72 71 71 70 70 69 71 72 72 72 72 73 73 73 74 75 75 76 75 75 74 74 74 73 73 73 73 73 73 73 72
69 69 70 71 72 72 72 72 72 72 72 72 72 72 72 73 73 72 73 73 73 73 73 73 73 74 75 75 75 74 75 73 73 74 75 74 74 74 74 74 74 75 74 74 73 73 73 73 74 74 73 73 73 74 73 71 71 69 70 69 70 71 72 72 72 73 73 74 74 74 75 75 75 75 75 75 74 74 74 73 73 73 73 73 73
68 69 69 71 71 71 72 71 72 71 72 71 72 72 72 72 72 73 72 72 73 72 73 73 73 74 75 75 75 75 75 73 73 74 75 74 74 74 74 74 75 75 74 74 74 73 74 74 75 74 73 72 74 73 72 72 70 69 69 70 71 72 71 72 72 72 73 74 74 74 75 75 75 75 75 74 75 75 74 74 74 74 73 73 73
68 68 69 70 71 71 71 70 71 71 71 71 71 71 71 71 71 72 71 72 72 72 72 73 73 74 74 75 75 75 75 73 74 74 75 74 74 74 74 74 75 74 74 74 74 74 74 74 74 75 73 72 73 73 71 71 69 67 69 69 70 71 71 72 72 73 73 73 74 74 74 75 75 75 75 75 75 75 75 74 74 74 74 73 73
68 68 69 69 70 70 71 70 70 70 71 71 71 70 70 70 70 71 72 71 71 71 72 73 73 73 74 74 75 75 75 74 74 74 74 74 74 74 74 75 75 74 74 74 74 74 74 74 74 74 74 74 74 72 71 69 67 67 69 69 70 70 71 72 73 74 73 73 73 74 74 74 74 74 74 74 73 74 74 74 74 74 74 73 74
67 68 69 70 70 70 71 71 70 70 70 71 71 70 69 69 70 70 71 71 71 71 72 72 73 73 73 74 75 75 76 74 74 74 74 74 74 74 74 75 76 75 74 74 75 75 75 74 73 74 75 75 73 73 71 68 67 68 68 68 69 70 71 73 73 72 72 72 73 74 73 73 73 74 74 74 74 74 74 75 75 75 75 74 74
68 68 69 69 70 70 70 70 70 70 70 70 71 70 69 68 68 69 70 71 71 71 72 72 72 73 73 74 75 75 75 75 74 74 74 74 74 74 74 75 76 75 74 74 74 74 74 74 73 73 72 73 71 70 69 67 65 67 68 67 68 69 72 71 71 71 72 72 73 74 73 73 74 73 73 74 74 73 74 74 75 75 74 74 74
68 68 68 69 69 69 70 70 70 70 70 70 70 70 69 68 68 67 67 69 70 71 71 71 72 72 73 74 75 75 75 75 75 74 74 75 74 74 75 75 75 75 74 74 74 74 74 73 74 76 72 71 70 68 66 65 65 66 66 65 67 69 72 70 69 70 70 71 72 73 73 73 73 73 73 73 73 73 73 74 74 74 75 75 74
67 67 67 68 69 69 69 70 70 70 70 69 70 70 70 69 67 67 67 67 69 70 70 71 71 72 74 74 75 75 75 75 75 75 74 74 74 74 75 75 75 75 75 75 74 75 75 73 74 73 73 71 70 67 65 65 63 64 65 64 67 67 69 68 68 67 68 69 71 72 72 72 72 72 73 73 73 73 73 73 74 74 74 74 74
66 67 67 68 69 69 69 70 70 69 70 70 70 70 70 70 69 68 67 67 70 71 70 71 72 72 73 74 74 75 75 75 75 75 74 74 74 74 75 75 75 75 75 74 75 75 75 73 73 72 72 73 73 69 66 65 63 64 64 66 63 64 67 66 66 66 65 67 69 70 71 71 72 72 73 73 73 73 73 73 73 73 74 74 74
67 67 67 67 68 69 69 69 69 69 70 70 71 70 70 70 70 70 69 69 70 72 72 72 72 72 72 73 74 74 74 75 75 75 75 74 74 74 75 75 75 75 75 74 74 74 74 73 73 73 72 70 69 67 69 67 65 64 61 61 61 62 61 63 63 65 64 66 67 69 70 70 71 72 73 72 72 72 72 73 73 73 73 73 74
66 66 67 67 67 68 69 69 69 69 69 70 70 70 71 71 71 71 71 71 72 71 71 70 71 72 72 73 74 74 74 74 75 75 75 74 74 74 74 75 75 75 75 74 74 73 74 74 73 74 72 70 69 68 68 66 65 67 63 60 60 58 59 61 60 65 63 63 65 67 69 70 70 71 72 72 72 72 72 72 73 73 73 73 73
66 66 67 67 67 68 68 69 69 69 69 70 70 71 70 70 70 69 69 69 69 70 69 69 70 70 71 72 74 74 74 74 75 75 75 75 74 74 74 75 74 74 74 74 74 73 73 73 73 73 73 70 71 65 63 70 66 70 64 65 65 63 61 62 60 61 67 67 66 66 68 69 70 71 72 72 71 72 72 72 72 72 73 73 73
66 67 67 67 67 68 68 69 69 69 69 70 70 71 70 70 70 69 69 68 68 69 70 70 70 71 72 72 73 74 74 74 74 75 75 75 75 74 74 74 75 74 75 74 73 73 73 73 74 73 73 73 69 67 65 64 67 68 69 68 71 68 62 62 62 60 61 65 65 64 65 67 68 69 70 70 70 71 72 72 72 72 72 72 72
66 66 67 67 67 68 68 69 69 70 70 70 70 71 70 70 70 69 69 69 68 69 70 70 71 71 71 72 73 74 75 74 74 74 75 75 75 74 74 74 74 74 75 74 74 74 74 74 74 74 74 73 69 69 66 65 66 65 69 68 68 68 65 63 61 62 63 60 63 63 61 64 66 67 68 69 69 70 71 72 72 72 72 73 73
66 66 67 67 68 68 69 69 69 70 70 70 70 70 71 70 70 69 69 70 69 69 71 71 71 72 71 72 73 73 74 74 74 74 75 75 76 75 75 74 74 74 75 75 74 74 74 74 75 74 73 73 71 69 67 66 65 65 67 65 66 65 64 65 64 64 64 60 59 59 63 63 63 64 66 67 69 70 70 71 71 72 73 73 73
66 67 67 67 68 68 69 69 69 69 70 70 70 70 70 71 70 70 69 69 70 70 71 70 70 72 71 71 72 73 74 74 74 74 74 75 75 75 75 75 74 74 75 75 74 74 74 74 74 74 74 73 72 70 68 67 66 66 66 67 64 65 64 64 63 62 60 64 62 60 61 61 63 66 67 65 67 67 69 70 70 70 72 73 73
66 66 67 67 68 68 69 69 69 70 70 70 70 70 70 70 70 70 69 69 70 70 70 70 70 71 71 71 72 72 73 74 74 74 74 74 75 75 75 75 75 76 76 75 75 74 74 74 74 75 74 74 73 71 71 69 67 67 65 66 66 64 64 63 63 62 61 61 59 58 58 60 61 62 66 64 67 66 69 69 69 68 71 71 72